AirNav   Air Wisconsin pilot careers
 
 342 users online  

UT15 Flying Cal Ute Rancheros Airport
Paragonah, Utah, USA

GOING TO PARAGONAH?


FAA INFORMATION EFFECTIVE 01 FEBRUARY 2018

Location

FAA Identifier: UT15
Lat/Long: 37-55-42.9060N / 112-46-07.7960W
37-55.715100N / 112-46.129933W
37.9285850 / -112.7688322
(estimated)
Elevation: 5764 ft. / 1757 m (estimated)
Variation: 14E (1990)
From city: 3 miles N of PARAGONAH, UT
Time zone: UTC -7 (UTC -6 during Daylight Saving Time)
Zip code: 84761

Airport Operations

Airport use: Private use. Permission required prior to landing
Activation date: 01/1992
Control tower: no
ARTCC: SALT LAKE CITY CENTER
FSS: CEDAR CITY FLIGHT SERVICE STATION
Attendance: UNATNDD
Wind indicator: yes
Segmented circle: no

Airport Communications

WX AWOS-3 at U55 (19 nm E): 133.125 (435-676-8784)
WX AWOS-3 at U52 (19 nm N): 119.925 (435-438-5829)

Nearby radio navigation aids

VOR radial/distance  VOR name  Freq  Var
EHKr043/16.5ENOCH VOR/DME117.3016E
BCEr288/26.3BRYCE CANYON VORTAC112.8015E
MLFr140/28.4MILFORD VORTAC112.1016E

Airport Services

Runway Information

Runway E/W

Dimensions: 5280 x 80 ft. / 1609 x 24 m
Surface: gravel
RUNWAY E  RUNWAY W
Traffic pattern: leftleft

Airport Ownership and Management from official FAA records

Ownership: Privately-owned
Owner: RICHARD TANGRAY
3114 E. CHARLESTON BLVD
LAS VEGAS, NV 89104
Phone 702-457-2622
Manager: R.L. TANGRAY
3114 E. CHARLESTON BLVD
LAS VEGAS, NV 89104
Phone 702-457-2622

Airport Operational Statistics

Aircraft based on the field: 1
Single engine airplanes: 1
    

Instrument Procedures

There are no published instrument procedures at UT15.

Some nearby airports with instrument procedures:

U55 - Panguitch Municipal Airport (19 nm E)
U52 - Beaver Municipal Airport (19 nm N)
KCDC - Cedar City Regional Airport (21 nm SW)
KMLF - Milford Municipal Airport/Ben and Judy Briscoe Field (32 nm N)
KBCE - Bryce Canyon Airport (32 nm SE)
 
Loc | Ops | Rwys | IFR | FBO | Links
Com | Nav | Svcs | Stats | Notes

AirNav Hotels Sweepstakes
 
Area around UT15 (Flying Cal Ute Rancheros Airport)
 
Road maps at: MapQuest Bing Google
 
Aerial photo
No photo
 
Sectional chart

 
Airport distance calculator
Flying to Flying Cal Ute Rancheros Airport? Find the distance to fly.

From to UT15

Sunrise and sunset
Times for 19-Feb-2018
 Local
(UTC-7)
 Zulu
(UTC)
Morning civil twilight06:5013:50
Sunrise07:1714:17
Sunset18:1301:13
Evening civil twilight18:4001:40

Current date and time
Zulu (UTC)  19-Feb-2018 11:00:50
Local (UTC-7)  19-Feb-2018 04:00:50
 
METAR
KCDC 
21nm SW 
191053Z AUTO 21026G38KT 10SM OVC080 04/M08 A2938 RMK AO2 PK WND 20040/1025 SLP916 T00391083
KMLF 
32nm N 
191052Z AUTO 36015KT 2 1/2SM -SN BR FEW019 BKN035 OVC046 M02/M03 A2941 RMK AO2 WSHFT 1003 SNB41 SLP943 P0000 T10171028
KBCE 
32nm SE 
191053Z AUTO 21022G30KT 5SM -SN OVC035 00/M06 A2943 RMK AO2 PK WND 19043/0956 SNB0959 SLP904 P0000 T00001061
TAF
KCDC 
21nm SW 
190903Z 1909/2006 21025G34KT P6SM VCSH SCT030 BKN060 TEMPO 1909/1910 20035G50KT FM191300 24013G20KT 2SM -SHSN SCT009 BKN025 FM191800 28010KT 1SM -SN BR SCT007 BKN015 FM200000 34010KT P6SM VCSH SCT015 BKN050
NOTAMs
Click for the latest NOTAMs
NOTAMs are issued by the DoD/FAA and will open in a separate window not controlled by AirNav.

 

 
 

Would you like to see your business listed on this page?

 If your business provides an interesting product or service to pilots, flight crews, aircraft, or users of the Flying Cal Ute Rancheros Airport, you should consider listing it here.  To start the listing process, click on the button below
 
Add a business
 

Other Pages about Flying Cal Ute Rancheros Airport

Update a link
 
Copyright © AirNav, LLC. All rights reserved. Privacy Policy  Contact